This demonstration page uses our WeatherBlox Daily Observations layout. Learn more.

40.92945, -100.16068

Hourly Observations for December 16, 2018

Temp ( °F °C ) Dew Point ( °F °C ) Humidity (%) Winds ( mph kmh ) Pressure ( in mb ) Visibility ( mi km ) Precip ( " mm )
12:15 am 00:15 Clear 30 -1.2 26 -3.5 85 85 W 8 13 30.3 1026 10 16.0934 0 0
12:35 am 00:35 Clear 31 -0.6 27 -3 84 84 WNW 9 15 30.27 1025 10 16.0934 0 0
12:55 am 00:55 Clear 31 -0.8 26 -3.1 85 85 WNW 10 17 30.33 1027 10 16.0934 0 0
1:15 am 01:15 Clear 31 -0.7 27 -3 85 85 WNW 8 13 30.33 1027 10 16.0934 0 0
1:35 am 01:35 Clear 31 -0.5 27 -2.9 84 84 WNW 6 9 30.3 1026 10 16.0934 0 0
1:55 am 01:55 Clear 30 -1 26 -3.1 86 86 W 6 9 30.33 1027 10 16.0934 0 0
2:15 am 02:15 Clear 30 -0.9 27 -3 86 86 W 9 15 30.33 1027 10 16.0934 0 0
2:35 am 02:35 Clear 31 -0.6 26 -3.1 83 83 SW 5 7 30.33 1027 10 16.0934 0 0
2:55 am 02:55 Clear 29 -1.7 25 -3.7 86 86 W 8 13 30.36 1028 10 16.0934 0 0
3:15 am 03:15 Clear 29 -1.8 25 -3.9 86 86 WNW 6 9 30.33 1027 10 16.0934 0 0
3:35 am 03:35 Clear 28 -2.5 24 -4.2 88 88 NW 6 9 30.33 1027 10 16.0934 0 0
3:55 am 03:55 Clear 26 -3.2 23 -5 88 88 WNW 7 11 30.36 1028 10 16.0934 0 0
4:15 am 04:15 Clear 28 -2.3 25 -4 88 88 WNW 8 13 30.36 1028 10 16.0934 0 0
4:35 am 04:35 Clear 29 -1.9 25 -3.8 87 87 WNW 9 15 30.36 1028 10 16.0934 0 0
4:55 am 04:55 Clear 28 -2 25 -3.8 88 88 WNW 8 13 30.36 1028 10 16.0934 0 0
5:15 am 05:15 Clear 28 -2.5 24 -4.2 88 88 WNW 9 15 30.36 1028 10 16.0934 0 0
5:35 am 05:35 Clear 28 -2.3 25 -4 88 88 WNW 10 17 30.39 1029 10 16.0934 0 0
5:55 am 05:55 Clear 29 -1.7 25 -3.7 86 86 WNW 9 15 30.39 1029 10 16.0934 0 0
6:15 am 06:15 Clear 27 -2.7 24 -4.6 87 87 W 7 11 30.39 1029 10 16.0934 0 0
6:35 am 06:35 Clear 26 -3.1 23 -4.9 88 88 NW 7 11 30.42 1030 10 16.0934 0 0
6:55 am 06:55 Clear 26 -3.4 23 -5 89 89 NW 6 9 30.42 1030 10 16.0934 0 0
7:15 am 07:15 Clear 25 -3.9 22 -5.7 87 87 NW 7 11 30.42 1030 10 16.0934 0 0
7:35 am 07:35 Clear 27 -3 23 -4.8 88 88 WNW 7 11 30.42 1030 10 16.0934 0 0
7:55 am 07:55 Clear 27 -2.7 24 -4.7 86 86 WNW 9 15 30.39 1029 10 16.0934 0 0
8:15 am 08:15 Sunny 26 -3.2 23 -5 88 88 NW 9 15 30.45 1031 10 16.0934 0 0
8:35 am 08:35 Sunny 28 -2.5 24 -4.5 86 86 NW 6 9 30.42 1030 10 16.0934 0 0
8:55 am 08:55 Sunny 29 -1.7 25 -4 85 85 WNW 6 9 30.42 1030 10 16.0934 0 0
9:15 am 09:15 Sunny 30 -1.1 26 -3.6 83 83 WNW 8 13 30.42 1030 10 16.0934 0 0
9:35 am 09:35 Sunny 31 -0.3 26 -3.1 82 82 WNW 8 13 30.45 1031 10 16.0934 0 0
9:55 am 09:55 Sunny 33 0.6 28 -2.3 81 81 W 8 13 30.42 1030 10 16.0934 0 0
10:15 am 10:15 Sunny 35 1.8 29 -1.5 79 79 W 6 9 30.42 1030 10 16.0934 0 0
10:35 am 10:35 Sunny 37 2.5 30 -1.3 76 76 W 5 7 30.42 1030 10 16.0934 0 0
10:55 am 10:55 Sunny 38 3.6 30 -1 72 72 NW 6 9 30.39 1029 10 16.0934 0 0
11:15 am 11:15 Sunny 40 4.5 31 -0.5 70 70 WNW 6 9 30.39 1029 10 16.0934 0 0
11:35 am 11:35 Sunny 42 5.5 32 -0.1 68 68 W 3 6 30.39 1029 10 16.0934 0 0
11:55 am 11:55 Sunny 44 6.4 32 0 64 64 W 5 7 30.39 1029 10 16.0934 0 0
12:15 pm 12:15 Sunny 45 7 31 -0.4 60 60 W 5 7 30.33 1027 10 16.0934 0 0
12:35 pm 12:35 Sunny 46 8 32 0.2 58 58 W 5 7 30.33 1027 10 16.0934 0 0
12:55 pm 12:55 Sunny 48 8.9 29 -1.9 47 47 Calm 30.33 1027 10 16.0934 0 0
1:15 pm 13:15 Sunny 50 9.8 31 -0.8 48 48 W 5 7 30.27 1025 10 16.0934 0 0
1:35 pm 13:35 Sunny 50 10 27 -2.9 41 41 WSW 3 6 30.27 1025 10 16.0934 0 0
1:55 pm 13:55 Sunny 51 10.5 29 -1.8 43 43 WSW 3 6 30.27 1025 10 16.0934 0 0
2:15 pm 14:15 Sunny 52 11.2 26 -3.2 37 37 SSW 3 6 30.27 1025 10 16.0934 0 0
2:35 pm 14:35 Sunny 53 11.5 26 -3.1 36 36 SW 3 6 30.27 1025 10 16.0934 0 0
2:55 pm 14:55 Sunny 53 11.5 25 -4 34 34 SSW 6 9 30.27 1025 10 16.0934 0 0
3:15 pm 15:15 Sunny 53 11.5 27 -2.6 38 38 SSW 6 9 30.27 1025 10 16.0934 0 0
3:35 pm 15:35 Sunny 52 11.2 28 -2.2 39 39 SW 6 9 30.27 1025 10 16.0934 0 0
3:55 pm 15:55 Sunny 52 11 28 -2.3 40 40 SSW 5 7 30.27 1025 10 16.0934 0 0
4:15 pm 16:15 Sunny 51 10.5 29 -1.4 44 44 S 3 6 30.27 1025 10 16.0934 0 0
4:35 pm 16:35 Sunny 48 8.9 29 -1.6 48 48 S 6 9 30.3 1026 10 16.0934 0 0
4:55 pm 16:55 Sunny 45 7.1 29 -1.9 53 53 S 6 9 30.3 1026 10 16.0934 0 0
5:15 pm 17:15 Clear 45 7.1 28 -2.2 52 52 SSE 5 7 30.3 1026 10 16.0934 0 0
5:35 pm 17:35 Clear 44 6.8 28 -2.5 52 52 S 5 7 30.3 1026 10 16.0934 0 0
5:55 pm 17:55 Clear 42 5.3 28 -2.5 58 58 S 6 9 30.33 1027 10 16.0934 0 0
6:15 pm 18:15 Clear 39 3.9 28 -2.4 64 64 S 5 7 30.33 1027 10 16.0934 0 0
6:35 pm 18:35 Clear 38 3.2 28 -2.5 67 67 S 5 7 30.33 1027 10 16.0934 0 0
6:55 pm 18:55 Clear 37 2.6 28 -2.2 71 71 SSW 3 6 30.36 1028 10 16.0934 0 0
7:15 pm 19:15 Clear 35 1.8 27 -2.6 73 73 Calm 30.36 1028 10 16.0934 0 0
7:35 pm 19:35 Clear 34 1.3 27 -2.6 76 76 Calm 30.36 1028 10 16.0934 0 0
7:55 pm 19:55 Clear 35 1.5 27 -2.6 74 74 S 3 6 30.36 1028 10 16.0934 0 0
8:15 pm 20:15 Clear 34 1.3 27 -2.7 75 75 SW 5 7 30.36 1028 10 16.0934 0 0
8:35 pm 20:35 Clear 35 1.5 28 -2.5 75 75 SW 3 6 30.36 1028 10 16.0934 0 0
8:55 pm 20:55 Clear 32 0 25 -3.7 76 76 Calm 30.36 1028 10 16.0934 0 0
9:15 pm 21:15 Clear 30 -1.2 25 -4 82 82 Calm 30.39 1029 10 16.0934 0 0
9:35 pm 21:35 Clear 29 -1.8 25 -3.8 86 86 E 3 6 30.39 1029 10 16.0934 0 0
9:55 pm 21:55 Clear 30 -1.2 26 -3.1 87 87 E 3 6 30.39 1029 10 16.0934 0 0
10:15 pm 22:15 Clear 29 -1.9 25 -3.9 86 86 E 5 7 30.39 1029 10 16.0934 0 0
10:35 pm 22:35 Clear 29 -1.9 25 -3.7 88 88 ENE 3 6 30.39 1029 10 16.0934 0 0
10:55 pm 22:55 Clear 29 -1.9 25 -3.7 88 88 Calm 30.39 1029 10 16.0934 0 0
11:15 pm 23:15 Clear 29 -1.7 26 -3.6 87 87 Calm 30.39 1029 10 16.0934 0 0
11:35 pm 23:35 Clear 28 -2.5 24 -4.2 88 88 Calm 30.39 1029 10 16.0934 0 0
11:55 pm 23:55 Clear 27 -2.7 24 -4.3 89 89 Calm 30.39 1029 10 16.0934 0 0

Powered by AerisWeather